Find Starlink 32278

NORAD ID: 60356 Int'l Des: 2024-138 Owner: SPXS Country: US Constellation: starlink operational
LEOCIRCULAR

現在のビュー

3D地球を読み込み中...

About Starlink 32278

Starlink 32278 (NORAD 60356) is a starlink constellation satellite (v2 mini) launched Aug 4, 2024 by SPXS of US. It operates in LEO, CIRCULAR orbit with a mass of 730.00 kg.

Starlink 32278について

説明を読み込み中...

次回通過

Passes for default location (London). Set your location on the main map for personalized predictions.

高度履歴

Loading altitude history...

軌道要素

1 60356U 24138B 26175.28891281 -.00000393 00000-0 -11616-5 0 9995
2 60356 53.1604 174.7950 0001086 96.4976 263.6148 15.30197779106949
Epoch: Jun 24, 2026 • Age: 17 hours

現在のステータス

高度 489.5 km
速度 7.62 km/s
衛星直下点 -41.29°S, 124.8°E
打ち上げ日 Aug 4, 2024
運用期間 1.8 years
タイプ internet

技術仕様

分類 Payload
質量 730.00 kg
乾燥質量 700.00 kg
総質量 730.00 kg
長さ 0.30 m
直径 4.10 m
スパン 29.00 m
形状 Box + pan
製造者 SPXS
バスタイプ Starlink V2M
フェーズステータス In Orbit
所有者/国 SPXS/US

Most Searched